FW9792 Weather Reports


time (UTC)temp
F
wind
direction
speed
knots
gust
knots
rain 1hr
in
rain 24hr
in
rain mn
in
humidity
%
barometer
mb
20260906230100 99 121 2.6 7.0 0.00 0.00 0.00 43 1009.5
20260906224559 99 104 1.7 5.2 0.00 0.00 0.00 42 1009.4
20260906223055 99 45 2.6 6.1 0.00 0.00 0.00 43 1009.6
20260906221553 99 145 0.0 7.0 0.00 0.00 0.00 42 1009.7
20260906220051 100 121 2.6 7.0 0.00 0.00 0.00 41 1009.8
20260906214552 99 74 1.7 8.7 0.00 0.00 0.00 41 1010.0
20260906213046 100 136 0.9 6.1 0.00 0.00 0.00 42 1010.0
20260906211546 99 78 0.9 6.1 0.00 0.00 0.00 43 1010.3
20260906210047 99 96 1.7 8.7 0.00 0.00 0.00 43 1010.6
20260906204540 99 137 1.7 7.0 0.00 0.00 0.00 43 1010.5
20260906203036 99 159 0.9 6.1 0.00 0.00 0.00 43 1010.7
20260906201534 99 63 4.3 9.6 0.00 0.00 0.00 43 1010.9
20260906200038 99 148 0.9 6.1 0.00 0.00 0.00 46 1011.0
20260906194524 98 71 0.9 7.0 0.00 0.00 0.00 45 1011.1
20260906193021 98 115 1.7 7.0 0.00 0.00 0.00 46 1011.4
20260906191530 97 144 2.6 8.7 0.00 0.00 0.00 48 1011.7
20260906190016 97 105 1.7 4.3 0.00 0.00 0.00 48 1011.7
20260906184516 97 159 1.7 7.0 0.00 0.00 0.00 48 1011.9
20260906183013 96 121 0.9 5.2 0.00 0.00 0.00 50 1012.0
20260906181534 97 136 0.9 7.8 0.00 0.00 0.00 49 1012.3
20260906180019 96 134 1.7 7.8 0.00 0.00 0.00 50 1012.5
20260906174505 95 170 0.9 7.8 0.00 0.00 0.00 52 1012.8
20260906173007 95 175 2.6 9.6 0.00 0.00 0.00 52 1013.1
20260906171502 95 284 0.9 2.6 0.00 0.00 0.00 53 1013.4
20260906170110 94 142 0.9 4.3 0.00 0.00 0.00 56 1013.7
20260906164602 94 90 0.9 3.5 0.00 0.00 0.00 55 1013.9
20260906163057 93 254 0.9 5.2 0.00 0.00 0.00 57 1013.7
20260906161551 92 41 3.5 7.0 0.00 0.00 0.00 59 1013.6
20260906160049 91 85 0.9 7.0 0.00 0.00 0.00 62 1013.7
20260906154547 90 49 1.7 4.3 0.00 0.00 0.00 63 1013.6
20260906153045 90 159 0.0 2.6 0.00 0.00 0.00 65 1013.6
20260906151547 89 110 1.7 3.5 0.00 0.00 0.00 66 1013.7
20260906150043 88 110 0.9 3.5 0.00 0.00 0.00 69 1013.5
20260906144547 87 150 0.0 2.6 0.00 0.00 0.00 71 1013.4
20260906143037 86 148 0.9 2.6 0.00 0.00 0.00 72 1013.5
20260906141535 85 124 0.0 1.7 0.00 0.00 0.00 73 1013.5
20260906140029 84 123 0.0 1.7 0.00 0.00 0.00 75 1013.6
20260906134531 83 123 0.0 1.7 0.00 0.00 0.00 77 1013.4
20260906133027 81 123 0.0 1.7 0.00 0.00 0.00 79 1013.3
20260906131534 79 123 0.0 1.7 0.00 0.00 0.00 84 1013.3
20260906130026 77 123 0.0 0.0 0.00 0.00 0.00 87 1013.3
20260906124524 76 123 0.0 0.0 0.00 0.00 0.00 87 1013.1
20260906123024 76 123 0.0 0.0 0.00 0.00 0.00 87 1013.1
20260906121522 76 123 0.0 0.0 0.00 0.00 0.00 87 1013.0
20260906120018 76 123 0.0 0.0 0.00 0.00 0.00 86 1012.7
20260906114529 77 123 0.0 0.0 0.00 0.00 0.00 85 1012.4
20260906113014 77 123 0.0 0.0 0.00 0.00 0.00 85 1012.4
20260906111513 77 123 0.0 0.0 0.00 0.00 0.00 84 1012.2
20260906110012 78 123 0.0 0.0 0.00 0.00 0.00 83 1012.2
20260906104509 78 123 0.0 0.0 0.00 0.00 0.00 83 1012.1
20260906103007 78 123 0.0 0.0 0.00 0.00 0.00 82 1012.0
20260906101506 79 123 0.0 0.0 0.00 0.00 0.00 81 1012.1
20260906100005 79 123 0.0 0.0 0.00 0.00 0.00 80 1011.8
20260906094506 80 123 0.0 0.0 0.00 0.00 0.00 80 1011.7
20260906093131 80 123 0.0 0.9 0.00 0.00 0.00 79 1011.5
20260906091609 80 123 0.0 0.0 0.00 0.00 0.00 79 1011.5
20260906090059 81 123 0.0 1.7 0.00 0.00 0.00 79 1011.3
20260906084556 81 123 0.0 0.0 0.00 0.00 0.00 78 1011.3
20260906083056 81 123 0.0 0.9 0.00 0.00 0.00 77 1011.2
20260906081554 81 123 0.0 1.7 0.00 0.00 0.00 78 1011.3
20260906080053 81 123 0.0 0.0 0.00 0.00 0.00 76 1011.5
20260906074554 82 123 0.0 0.9 0.00 0.00 0.00 76 1011.8
20260906073049 82 123 0.0 1.7 0.00 0.00 0.00 75 1011.5
20260906071550 82 123 0.0 1.7 0.00 0.00 0.00 75 1011.6
20260906070046 82 122 0.0 0.9 0.00 0.00 0.00 75 1011.5
20260906064544 83 122 0.0 1.7 0.00 0.00 0.00 75 1011.7
20260906063043 83 123 0.0 1.7 0.00 0.00 0.00 75 1011.9
20260906061540 84 123 0.0 0.9 0.00 0.00 0.00 74 1012.0
20260906060040 84 123 0.0 0.9 0.00 0.00 0.00 73 1012.1
20260906054541 84 122 0.0 0.0 0.00 0.00 0.00 72 1012.0
20260906053039 84 123 0.0 0.9 0.00 0.00 0.00 71 1012.1
20260906051547 85 122 0.0 0.9 0.00 0.00 0.00 70 1012.1
20260906050029 85 122 0.0 0.0 0.00 0.00 0.00 70 1012.1
20260906044529 86 122 0.0 0.0 0.00 0.00 0.00 69 1011.9
20260906043029 86 122 0.0 1.7 0.00 0.00 0.00 68 1011.9
20260906041528 87 122 0.0 1.7 0.00 0.00 0.00 68 1011.7
20260906040032 87 121 0.9 2.6 0.00 0.00 0.00 67 1011.8
20260906034527 87 146 1.7 7.8 0.00 0.00 0.00 67 1011.5
20260906033038 88 146 0.0 4.3 0.00 0.00 0.00 66 1011.9
20260906031535 88 148 0.0 5.2 0.00 0.00 0.00 65 1011.9
20260906030025 89 129 0.9 2.6 0.00 0.00 0.00 64 1011.8
20260906024540 89 134 0.9 6.1 0.00 0.00 0.00 63 1011.5
20260906023026 90 118 0.9 5.2 0.00 0.00 0.00 60 1011.2
20260906021525 90 142 1.7 8.7 0.00 0.00 0.00 59 1011.0
20260906020023 91 143 1.7 7.0 0.00 0.00 0.00 57 1010.7
20260906014537 92 126 3.5 8.7 0.00 0.00 0.00 54 1010.6
20260906013037 94 127 3.5 7.8 0.00 0.00 0.00 50 1010.2
20260906011522 94 146 0.9 4.3 0.00 0.00 0.00 48 1009.8
20260906010025 95 150 0.9 7.0 0.00 0.00 0.00 47 1009.7
20260906004523 96 182 1.7 6.1 0.00 0.00 0.00 45 1009.8
20260906003020 97 173 0.9 3.5 0.00 0.00 0.00 44 1009.8
20260906001522 98 104 0.0 1.7 0.00 0.00 0.00 43 1009.7
20260906000018 98 100 0.9 2.6 0.00 0.00 0.00 42 1009.4
20260905234518 98 98 0.0 2.6 0.00 0.00 0.00 42 1009.5
20260905233017 98 88 0.9 4.3 0.00 0.00 0.00 42 1009.3
20260905231517 98 76 1.7 6.1 0.00 0.00 0.00 43 1009.4